Time,TemperatureF,DewpointF,PressureIn,WindDirection,WindDirectionDegrees,WindSpeedMPH,WindSpeedGustMPH,Humidity,HourlyPrecipIn,Conditions,Clouds,dailyrainin,SolarRadiationWatts/m^2,SoftwareType,DateUTC
2013-03-11 00:03:00,50.0,24.0,-100.00,SSE,159,3.0,16.0,36,0.00,,,0.00,0.000000,,2013-03-11 04:03:00,
2013-03-11 00:33:00,50.0,25.0,-100.00,South,179,6.0,16.0,37,0.00,,,0.00,0.000000,,2013-03-11 04:33:00,
2013-03-11 00:43:00,50.0,25.0,-100.00,South,179,6.0,16.0,37,0.00,,,0.00,0.000000,,2013-03-11 04:43:00,
2013-03-11 00:53:00,50.0,25.0,-100.00,South,179,6.0,16.0,37,0.00,,,0.00,0.000000,,2013-03-11 04:53:00,
2013-03-11 01:03:00,50.0,25.0,-100.00,South,179,6.0,16.0,37,0.00,,,0.00,0.000000,,2013-03-11 05:03:00,
2013-03-11 01:32:00,50.0,25.0,-100.00,South,171,8.0,18.0,37,0.00,,,0.00,0.000000,,2013-03-11 05:32:00,
2013-03-11 01:43:00,50.0,25.0,-100.00,South,171,8.0,18.0,37,0.00,,,0.00,0.000000,,2013-03-11 05:43:00,
2013-03-11 01:52:00,50.0,25.0,-100.00,South,171,8.0,18.0,37,0.00,,,0.00,0.000000,,2013-03-11 05:52:00,
2013-03-11 02:02:00,50.0,25.0,-100.00,South,171,8.0,18.0,37,0.00,,,0.00,0.000000,,2013-03-11 06:02:00,
2013-03-11 02:33:00,50.0,25.0,-100.00,South,177,8.0,16.0,37,0.00,,,0.00,0.000000,,2013-03-11 06:33:00,
2013-03-11 02:42:00,50.0,25.0,-100.00,South,177,8.0,16.0,37,0.00,,,0.00,0.000000,,2013-03-11 06:42:00,
2013-03-11 02:53:00,50.0,25.0,-100.00,South,177,8.0,16.0,37,0.00,,,0.00,0.000000,,2013-03-11 06:53:00,
2013-03-11 03:03:00,50.0,25.0,-100.00,South,177,8.0,16.0,37,0.00,,,0.00,0.000000,,2013-03-11 07:03:00,
2013-03-11 03:33:00,50.0,25.0,-100.00,South,172,8.0,19.0,37,0.00,,,0.00,0.000000,,2013-03-11 07:33:00,
2013-03-11 03:42:00,50.0,25.0,-100.00,South,172,8.0,19.0,37,0.00,,,0.00,0.000000,,2013-03-11 07:42:00,
2013-03-11 03:52:00,50.0,25.0,-100.00,South,172,8.0,19.0,37,0.00,,,0.00,0.000000,,2013-03-11 07:52:00,
2013-03-11 04:02:00,50.0,25.0,-100.00,South,172,8.0,19.0,37,0.00,,,0.00,0.000000,,2013-03-11 08:02:00,
2013-03-11 04:33:00,50.0,25.0,-100.00,South,186,6.0,17.0,37,0.00,,,0.00,0.000000,,2013-03-11 08:33:00,
2013-03-11 04:42:00,50.0,25.0,-100.00,South,186,6.0,17.0,37,0.00,,,0.00,0.000000,,2013-03-11 08:42:00,
2013-03-11 04:52:00,50.0,25.0,-100.00,South,186,6.0,17.0,37,0.00,,,0.00,0.000000,,2013-03-11 08:52:00,
2013-03-11 05:02:00,50.0,25.0,-100.00,South,186,6.0,17.0,37,0.00,,,0.00,0.000000,,2013-03-11 09:02:00,
2013-03-11 05:32:00,49.0,25.0,-100.00,South,179,5.0,12.0,38,0.00,,,0.00,0.000000,,2013-03-11 09:32:00,
2013-03-11 05:42:00,49.0,25.0,-100.00,South,179,5.0,12.0,38,0.00,,,0.00,0.000000,,2013-03-11 09:42:00,
2013-03-11 05:53:00,49.0,25.0,-100.00,South,179,5.0,12.0,38,0.00,,,0.00,0.000000,,2013-03-11 09:53:00,
2013-03-11 06:02:00,49.0,25.0,-100.00,South,179,5.0,12.0,38,0.00,,,0.00,0.000000,,2013-03-11 10:02:00,
2013-03-11 06:33:00,48.0,23.0,-100.00,SSE,152,5.0,11.0,37,0.00,,,0.00,0.000000,,2013-03-11 10:33:00,
2013-03-11 06:42:00,48.0,23.0,-100.00,SSE,152,5.0,11.0,37,0.00,,,0.00,0.000000,,2013-03-11 10:42:00,
2013-03-11 06:53:00,48.0,23.0,-100.00,SSE,152,5.0,11.0,37,0.00,,,0.00,0.000000,,2013-03-11 10:53:00,
2013-03-11 07:02:00,48.0,23.0,-100.00,SSE,152,5.0,11.0,37,0.00,,,0.00,0.000000,,2013-03-11 11:02:00,
2013-03-11 07:33:00,48.0,23.0,-100.00,South,183,5.0,15.0,37,0.00,,,-99.99,0.000000,,2013-03-11 11:33:00,
2013-03-11 07:43:00,48.0,23.0,-100.00,South,183,5.0,15.0,37,0.00,,,-99.99,0.000000,,2013-03-11 11:43:00,
2013-03-11 07:53:00,48.0,23.0,-100.00,South,183,5.0,15.0,37,0.00,,,-99.99,0.000000,,2013-03-11 11:53:00,
2013-03-11 08:02:00,48.0,23.0,-100.00,South,183,5.0,15.0,37,0.00,,,-99.99,0.000000,,2013-03-11 12:02:00,
2013-03-11 08:33:00,47.0,22.0,-100.00,South,175,5.0,13.0,37,0.00,,,-99.99,4.000000,,2013-03-11 12:33:00,
2013-03-11 08:43:00,47.0,22.0,-100.00,South,175,5.0,13.0,37,0.00,,,-99.99,4.000000,,2013-03-11 12:43:00,
2013-03-11 08:53:00,47.0,22.0,-100.00,South,175,5.0,13.0,37,0.00,,,-99.99,4.000000,,2013-03-11 12:53:00,
2013-03-11 09:03:00,47.0,22.0,-100.00,South,175,5.0,13.0,37,0.00,,,-99.99,4.000000,,2013-03-11 13:03:00,
2013-03-11 09:33:00,49.0,24.0,-100.00,South,169,5.0,11.0,37,0.00,,,-99.99,52.000000,,2013-03-11 13:33:00,
2013-03-11 09:43:00,49.0,24.0,-100.00,South,169,5.0,11.0,37,0.00,,,-99.99,52.000000,,2013-03-11 13:43:00,
2013-03-11 09:53:00,49.0,24.0,-100.00,South,169,5.0,11.0,37,0.00,,,-99.99,52.000000,,2013-03-11 13:53:00,
2013-03-11 10:02:00,49.0,24.0,-100.00,South,169,5.0,11.0,37,0.00,,,-99.99,52.000000,,2013-03-11 14:02:00,
2013-03-11 10:33:00,50.0,23.0,-100.00,SW,216,5.0,14.0,35,0.00,,,0.00,99.000000,,2013-03-11 14:33:00,
2013-03-11 10:43:00,50.0,23.0,-100.00,SW,216,5.0,14.0,35,0.00,,,0.00,99.000000,,2013-03-11 14:43:00,
2013-03-11 10:53:00,50.0,23.0,-100.00,SW,216,5.0,14.0,35,0.00,,,0.00,99.000000,,2013-03-11 14:53:00,
2013-03-11 11:03:00,50.0,23.0,-100.00,SW,216,5.0,14.0,35,0.00,,,0.00,99.000000,,2013-03-11 15:03:00,
2013-03-11 11:33:00,52.0,24.0,-100.00,SW,230,4.0,11.0,33,0.00,,,0.00,183.000000,,2013-03-11 15:33:00,
2013-03-11 11:43:00,52.0,24.0,-100.00,SW,230,4.0,11.0,33,0.00,,,0.00,183.000000,,2013-03-11 15:43:00,
2013-03-11 11:53:00,52.0,24.0,-100.00,SW,230,4.0,11.0,33,0.00,,,0.00,183.000000,,2013-03-11 15:53:00,
2013-03-11 12:03:00,52.0,24.0,-100.00,SW,230,4.0,11.0,33,0.00,,,0.00,183.000000,,2013-03-11 16:03:00,
2013-03-11 12:32:00,55.0,25.0,-100.00,SSE,163,9.0,15.0,31,0.00,,,0.00,262.000000,,2013-03-11 16:32:00,
2013-03-11 12:43:00,55.0,25.0,-100.00,SSE,163,9.0,15.0,31,0.00,,,0.00,262.000000,,2013-03-11 16:43:00,
2013-03-11 12:53:00,55.0,25.0,-100.00,SSE,163,9.0,15.0,31,0.00,,,0.00,262.000000,,2013-03-11 16:53:00,
2013-03-11 13:02:00,55.0,25.0,-100.00,SSE,163,9.0,15.0,31,0.00,,,0.00,262.000000,,2013-03-11 17:02:00,
2013-03-11 13:38:00,59.0,26.0,-100.00,SSE,161,8.0,17.0,28,0.00,,,-99.99,366.000000,,2013-03-11 17:38:00,
2013-03-11 13:53:00,59.0,26.0,-100.00,SSE,161,8.0,17.0,28,0.00,,,-99.99,366.000000,,2013-03-11 17:53:00,
2013-03-11 14:02:00,59.0,26.0,-100.00,SSE,161,8.0,17.0,28,0.00,,,-99.99,366.000000,,2013-03-11 18:02:00,
2013-03-11 14:33:00,60.0,26.0,-100.00,SSE,162,9.0,18.0,27,0.00,,,-99.99,527.000000,,2013-03-11 18:33:00,
2013-03-11 14:43:00,60.0,26.0,-100.00,SSE,162,9.0,18.0,27,0.00,,,-99.99,527.000000,,2013-03-11 18:43:00,
2013-03-11 14:53:00,60.0,26.0,-100.00,SSE,162,9.0,18.0,27,0.00,,,-99.99,527.000000,,2013-03-11 18:53:00,
2013-03-11 15:02:00,60.0,26.0,-100.00,SSE,162,9.0,18.0,27,0.00,,,-99.99,527.000000,,2013-03-11 19:02:00,
2013-03-11 15:33:00,60.0,27.0,-100.00,SSE,152,8.0,18.0,28,0.00,,,0.00,282.000000,,2013-03-11 19:33:00,
2013-03-11 15:43:00,60.0,27.0,-100.00,SSE,152,8.0,18.0,28,0.00,,,0.00,282.000000,,2013-03-11 19:43:00,
2013-03-11 15:53:00,60.0,27.0,-100.00,SSE,152,8.0,18.0,28,0.00,,,0.00,282.000000,,2013-03-11 19:53:00,
2013-03-11 16:02:00,60.0,27.0,-100.00,SSE,152,8.0,18.0,28,0.00,,,0.00,282.000000,,2013-03-11 20:02:00,
2013-03-11 16:33:00,58.0,28.0,-100.00,SSE,154,8.0,19.0,31,0.00,,,0.00,242.000000,,2013-03-11 20:33:00,
2013-03-11 16:44:00,58.0,28.0,-100.00,SSE,154,8.0,19.0,31,0.00,,,0.00,242.000000,,2013-03-11 20:44:00,
2013-03-11 16:53:00,58.0,28.0,-100.00,SSE,154,8.0,19.0,31,0.00,,,0.00,242.000000,,2013-03-11 20:53:00,
2013-03-11 17:03:00,58.0,28.0,-100.00,SSE,154,8.0,19.0,31,0.00,,,0.00,242.000000,,2013-03-11 21:03:00,
2013-03-11 17:33:00,55.0,27.0,-100.00,SSE,155,13.0,27.0,34,0.00,,,0.00,110.000000,,2013-03-11 21:33:00,
2013-03-11 17:44:00,55.0,27.0,-100.00,SSE,155,13.0,27.0,34,0.00,,,0.00,110.000000,,2013-03-11 21:44:00,
2013-03-11 17:54:00,55.0,27.0,-100.00,SSE,155,13.0,27.0,34,0.00,,,0.00,110.000000,,2013-03-11 21:54:00,
2013-03-11 18:03:00,55.0,27.0,-100.00,SSE,155,13.0,27.0,34,0.00,,,0.00,110.000000,,2013-03-11 22:03:00,
2013-03-11 18:33:00,53.0,27.0,-100.00,SSE,152,10.0,23.0,36,0.00,,,0.00,40.000000,,2013-03-11 22:33:00,
2013-03-11 18:43:00,53.0,27.0,-100.00,SSE,152,10.0,23.0,36,0.00,,,0.00,40.000000,,2013-03-11 22:43:00,
2013-03-11 18:53:00,53.0,27.0,-100.00,SSE,152,10.0,23.0,36,0.00,,,0.00,40.000000,,2013-03-11 22:53:00,
2013-03-11 19:03:00,53.0,27.0,-100.00,SSE,152,10.0,23.0,36,0.00,,,0.00,40.000000,,2013-03-11 23:03:00,
2013-03-11 19:33:00,52.0,27.0,-100.00,SSE,162,11.0,21.0,37,0.00,,,0.00,16.000000,,2013-03-11 23:33:00,
2013-03-11 19:43:00,52.0,27.0,-100.00,SSE,162,11.0,21.0,37,0.00,,,0.00,16.000000,,2013-03-11 23:43:00,
2013-03-11 19:54:00,52.0,27.0,-100.00,SSE,162,11.0,21.0,37,0.00,,,0.00,16.000000,,2013-03-11 23:54:00,
2013-03-11 20:02:00,52.0,27.0,-100.00,SSE,162,11.0,21.0,37,0.00,,,0.00,16.000000,,2013-03-12 00:02:00,
2013-03-11 20:33:00,50.0,31.0,-100.00,SSE,166,9.0,20.0,48,0.00,,,0.00,0.000000,,2013-03-12 00:33:00,
2013-03-11 20:43:00,50.0,31.0,-100.00,SSE,166,9.0,20.0,48,0.00,,,0.00,0.000000,,2013-03-12 00:43:00,
2013-03-11 20:54:00,50.0,31.0,-100.00,SSE,166,9.0,20.0,48,0.00,,,0.00,0.000000,,2013-03-12 00:54:00,
2013-03-11 21:02:00,50.0,31.0,-100.00,SSE,166,9.0,20.0,48,0.00,,,0.00,0.000000,,2013-03-12 01:02:00,
2013-03-11 21:33:00,49.0,35.0,-100.00,SSE,162,11.0,24.0,58,0.00,,,0.00,0.000000,,2013-03-12 01:33:00,
2013-03-11 21:42:00,49.0,35.0,-100.00,SSE,162,11.0,24.0,58,0.00,,,0.00,0.000000,,2013-03-12 01:42:00,
2013-03-11 21:53:00,49.0,35.0,-100.00,SSE,162,11.0,24.0,58,0.00,,,0.00,0.000000,,2013-03-12 01:53:00,
2013-03-11 22:02:00,49.0,35.0,-100.00,SSE,162,11.0,24.0,58,0.00,,,0.00,0.000000,,2013-03-12 02:02:00,
2013-03-11 22:32:00,48.0,41.0,-100.00,SSE,166,10.0,26.0,78,0.02,,,0.02,0.000000,,2013-03-12 02:32:00,
2013-03-11 22:43:00,48.0,41.0,-100.00,SSE,166,10.0,26.0,78,0.02,,,0.02,0.000000,,2013-03-12 02:43:00,
2013-03-11 22:52:00,48.0,41.0,-100.00,SSE,166,10.0,26.0,78,0.02,,,0.02,0.000000,,2013-03-12 02:52:00,
2013-03-11 23:02:00,48.0,41.0,-100.00,SSE,166,10.0,26.0,78,0.02,,,0.02,0.000000,,2013-03-12 03:02:00,
2013-03-11 23:32:00,48.0,44.0,-100.00,South,179,11.0,24.0,86,0.04,,,0.06,0.000000,,2013-03-12 03:32:00,
2013-03-11 23:43:00,48.0,44.0,-100.00,South,179,11.0,24.0,86,0.04,,,0.06,0.000000,,2013-03-12 03:43:00,
2013-03-11 23:53:00,48.0,44.0,-100.00,South,179,11.0,24.0,86,0.04,,,0.06,0.000000,,2013-03-12 03:53:00,